Location: Palau
(42.3086°N, 3.1507°E)
Time: 23:29:47
(UTC+00:00)

CZ-4 R/B - Pass Details

Date: 26 May 2020
Orbit: 681 x 753 km, 98.5° (Epoch: 05 July)

Event Time Altitude Azimuth Distance (km) Brightness Sun altitude
Rises 00:38:08 0° 7° (N) 3,144 8.5 -25.3°
Reaches altitude 10° 00:40:30 10° 2° (N) 2,207 7.4 -25.2°
Maximum altitude 00:45:06 46° 290° (WNW) 947 4.4 -25.0°
Enters shadow 00:45:23 45° 278° (W) 954 4.4 -25.0°
